DO1FDD-13 Weather Reports


Display with metric or nautical units.
time (UTC)temp
F
wind
direction
speed
MPH
gust
MPH
rain 1hr
in
rain 24hr
in
rain mn
in
humidity
%
barometer
mb
20260507152008 65 0.0 0.0 0.00 0.00 0.00 59
20260507150007 65 0.0 0.0 0.00 0.00 0.00 58
20260507144007 65 0.0 0.0 0.00 0.00 0.00 60
20260507142006 66 0.0 0.0 0.00 0.00 0.00 60
20260507140006 67 0.0 0.0 0.00 0.00 0.00 57
20260507134005 67 0.0 0.0 0.00 0.00 0.00 59
20260507132004 69 0.0 0.0 0.00 0.00 0.00 58
20260507130004 69 0.0 0.0 0.00 0.00 0.00 55
20260507124004 79 0.0 0.0 0.00 0.00 0.00 46
20260507122004 0 0.0 0.0 0.00 0.00 0.00
20260507120003 82 0.0 0.0 0.00 0.00 0.00 49
20260507114002 67 0.0 0.0 0.00 0.00 0.00 70
20260507112002 66 0.0 0.0 0.00 0.00 0.00 73
20260507110002 64 0.0 0.0 0.00 0.00 0.00 74
20260507104001 61 0.0 0.0 0.00 0.00 0.00 80
20260507102001 62 0.0 0.0 0.00 0.00 0.00 80
20260507100000 63 0.0 0.0 0.00 0.00 0.00 82
20260507093959 60 0.0 0.0 0.00 0.00 0.00 86
20260507091959 58 0.0 0.0 0.00 0.00 0.00 87
20260507083958 58 0.0 0.0 0.00 0.00 0.00 93
20260507081957 56 0.0 0.0 0.00 0.00 0.00 95
20260507075957 56 0.0 0.0 0.00 0.00 0.00 95
20260507073956 56 0.0 0.0 0.00 0.00 0.00 96
20260507071955 55 0.0 0.0 0.00 0.00 0.00 96
20260507065954 55 0.0 0.0 0.00 0.00 0.00 96
20260507063954 54 0.0 0.0 0.00 0.00 0.00 97
20260507061953 54 0.0 0.0 0.00 0.00 0.00 97
20260507055953 54 0.0 0.0 0.00 0.00 0.00 96
20260507053953 53 0.0 0.0 0.00 0.00 0.00 96
20260507051952 54 0.0 0.0 0.00 0.00 0.00 96
20260507045952 54 0.0 0.0 0.00 0.00 0.00 96
20260507043952 53 0.0 0.0 0.00 0.00 0.00 95
20260507041951 0 0.0 0.0 0.00 0.00 0.00
20260507033951 0 0.0 0.0 0.00 0.00 0.00
20260507031950 0 0.0 0.0 0.00 0.00 0.00
20260507025950 53 0.0 0.0 0.00 0.00 0.00 94
20260507023949 54 0.0 0.0 0.00 0.00 0.00 94
20260507021949 54 0.0 0.0 0.00 0.00 0.00 94
20260507015948 54 0.0 0.0 0.00 0.00 0.00 93
20260507013948 54 0.0 0.0 0.00 0.00 0.00 93
20260507011947 54 0.0 0.0 0.00 0.00 0.00 93
20260507005947 54 0.0 0.0 0.00 0.00 0.00 93
20260507003947 54 0.0 0.0 0.00 0.00 0.00 93
20260507001947 54 0.0 0.0 0.00 0.00 0.00 93
20260506235946 54 0.0 0.0 0.00 0.00 0.00 93
20260506233945 54 0.0 0.0 0.00 0.00 0.00 93
20260506231945 53 0.0 0.0 0.00 0.00 0.00 92
20260506225945 54 0.0 0.0 0.00 0.00 0.00 92
20260506223945 54 0.0 0.0 0.00 0.00 0.00 92
20260506221945 54 0.0 0.0 0.00 0.00 0.00 93
20260506215944 55 0.0 0.0 0.00 0.00 0.00 93
20260506213943 55 0.0 0.0 0.00 0.00 0.00 93
20260506211943 55 0.0 0.0 0.00 0.00 0.00 93
20260506205942 0 0.0 0.0 0.00 0.00 0.00
20260506203942 55 0.0 0.0 0.00 0.00 0.00 92
20260506201941 55 0.0 0.0 0.00 0.00 0.00 92
20260506195941 55 0.0 0.0 0.00 0.00 0.00 92
20260506193941 56 0.0 0.0 0.00 0.00 0.00 92
20260506191941 56 0.0 0.0 0.00 0.00 0.00 92
20260506185940 56 0.0 0.0 0.00 0.00 0.00 92
20260506181939 57 0.0 0.0 0.00 0.00 0.00 92
20260506175938 57 0.0 0.0 0.00 0.00 0.00 92
20260506173938 57 0.0 0.0 0.00 0.00 0.00 92
20260506171937 57 0.0 0.0 0.00 0.00 0.00 91
20260506165936 57 0.0 0.0 0.00 0.00 0.00 91
20260506163936 58 0.0 0.0 0.00 0.00 0.00 91
20260506162946 0 0.0 0.0 0.00 0.00 0.00
20260506160945 0 0.0 0.0 0.00 0.00 0.00
20260506152944 0 0.0 0.0 0.00 0.00 0.00